METEOR 2-8 DEB

Satellite information

Favourite Embed

Satellite Type and Status

DEBRISIN ORBIT

Key statistics

Satellite METEOR 2-8 DEB at a glance.

Uptime

15970

Days in orbit

Revolutions

≈ 14.2

Per day

Orbit

LEO

Low Earth Orbit

Inclination

82.5

Latest

Satellite identification and parameters

Extended collection of information and parameters for METEOR 2-8 DEB.

Object identification

Identified? True

Debris? True

Object name: METEOR 2-8 DEB

International designator: 1982-025AF

Object number (NORAD): 36345

Object ID (CCSDS): 36345

Country: COMMONWEALTH OF INDEPENDENT STATES (CIS)

Current information (Y/N): Y

RCS size: SMALL

Orbital parameters

Period: 101.062 minutes

Inclination: 82.5293 deg

SMA: 7187.086 km

Apoapsis: 825.747 km

Periapsis: 792.155 km

RAAN: 5.1334 deg

Eccentricy: 0.002337

Argument of periapsis: 328.0435 deg

Mean anomaly: 31.9329 deg

Mean motion: 14.24864246 rev/day

Mean motion (dot): 0.00005684 rev/day2

B* drag term: 0.0024219457 1/REarth

Two-line elements (TLE)

Creation date: Dec. 11, 2025, 3:54 a.m.

Reference frame: TEME

Reference center: EARTH

Epoch: Dec. 10, 2025, 6:46 p.m. UTC

TLE line 0: 0 METEOR 2-8 DEB

TLE line 1: 1 36345U 82025AF 25344.78227548 .00005684 00000-0 24219-2 0 9992

TLE line 2: 2 36345 82.5293 5.1334 0023370 328.0435 31.9329 14.24864246638711

Live tracking on map

Real-time ground track for satellite METEOR 2-8 DEB.

In-orbit conjunctions

A list of the most updated potential collisions computed for object METEOR 2-8 DEB.

Target Orbit TCA Probability of collision Miss distance Type
ADEOS 2 SSO 2025-10-19 16:25:37 0.0001752487 262.0 (m) PAYLOAD
CZ-6A DEB SSO 2025-09-11 02:16:50 0.0001542549 112.0 (m) DEBRIS
CZ-6A DEB SSO 2025-02-26 02:10:56 0.0001291997 106.0 (m) DEBRIS
CZ-6A DEB SSO 2025-02-10 14:26:31 0.000210085 19.0 (m) DEBRIS
CELESTIS 02/TAURUS R/B SSO 2024-06-11 09:16:15 0.0002471698 393.0 (m) ROCKET BODY

Associated space launch

Second generation soviet meteorological satellite

METEOR 2-8 DEB was lifted into orbit during the mission ‘Tsiklon-3 | Meteor-2 8’, on board a Tsiklon-3 space rocket.

The launch took place on March 25, 1982, 9:50 a.m. from 32/1.

For more information about the launch, click the button.

Launch to space Tsiklon-3 | Meteor-2 8
Tsiklon-3 | Meteor-2 8

Agency: N/A

Status: Launch Successful

Launch date: March 25, 1982, 9:50 a.m. UTC

Rocket: Tsiklon-3

Launch pad: 32/1

Location: Plesetsk Cosmodrome, Russian Federation

...

Latest news about this satellite

There are no fresh news available about this satellite. Check back as we update our databases every day.


Newsletter sign-up

Weekly statistics, charts and insights to help you stay on top of the space industry.